Flag Weather past 2 weeks in Nagercoil, Tamil Nadu, India

Now
86 °F

Broken clouds.


Feels Like: 95 °F
Forecast: 74 / 83 °F
Wind: 2 mph from Southwest

Location: Thiruvananthapuram

Current Time: Nov 26, 2014 at 3:44:32 PM

Latest Report: Nov 26, 2014 at 3:10 PM


Visibility: 2 mi

Pressure: 29.68 "Hg

Humidity: 70%

Dew point: 75 °F

Location of NagercoilLocation

Historic Weather in Nagercoil — Graph

°F

Nagercoil temperature yesterday

Maximum temperature yesterday: 86 °F (at 10:40 AM)
Minimum temperature yesterday: 77 °F (at 2:40 AM)
Average temperature yesterday: 81 °F

Past Weeks' High & Low Weather Summary

 TemperatureHumidityPressure
High90 °F (Nov 13, 12:40 PM)94% (Nov 13, 5:40 AM)29.92 "Hg (Nov 13, 5:40 AM)
Low77 °F (Nov 12, 5:10 AM)55% (Nov 25, 1:40 PM)29.68 "Hg (Nov 12, 3:40 PM)
Average82 °F80%29.80 "Hg
* Reported Nov 11 2:40 PM — Nov 26 2:40 PM, Nagercoil, Weather by CustomWeather, © 2014

Note: Actual official high and low records may vary slightly from our data, if they occured in-between our weather recording intervals... More about our weather records

Advertising

Nagercoil weather history for previous 24 hours

 ConditionsComfort  
Time TempWeatherWind HumidityBarometerVisibility
2:40 PM
Nov 26
86 °FBroken clouds.3 mph70%29.68 "Hg2 mi
2:10 PM86 °FBroken clouds.3 mph70%29.68 "Hg2 mi
1:40 PM86 °FBroken clouds.5 mph70%29.68 "Hg2 mi
1:10 PM84 °FBroken clouds.3 mph74%29.71 "Hg2 mi
12:40 PM84 °FBroken clouds.3 mph74%29.71 "Hg2 mi
11:40 AM84 °FBroken clouds.3 mph79%29.74 "Hg2 mi
11:10 AM84 °FBroken clouds.5 mph74%29.77 "Hg2 mi
10:40 AM84 °FBroken clouds.5 mph74%29.77 "Hg2 mi
10:10 AM84 °FBroken clouds.5 mph74%29.77 "Hg2 mi
9:10 AM81 °FBroken clouds.No wind79%29.77 "Hg1 mi
8:40 AM81 °FBroken clouds.No wind79%29.77 "Hg1 mi
8:10 AM79 °FBroken clouds.No wind84%29.77 "Hg1 mi
7:40 AM77 °FBroken clouds.No wind83%29.77 "Hg1 mi
7:10 AM77 °FBroken clouds.No wind83%29.77 "Hg1 mi
6:40 AM77 °FPassing clouds.No wind83%29.74 "Hg1 mi
6:10 AM77 °FPassing clouds.No wind83%29.74 "Hg2 mi
5:40 AM77 °FPassing clouds.No wind83%29.74 "Hg2 mi
4:40 AM77 °FPassing clouds.No wind79%29.71 "Hg2 mi
4:10 AM77 °FPassing clouds.No wind79%29.71 "Hg2 mi
3:40 AM77 °FPassing clouds.No wind79%29.71 "Hg2 mi
3:10 AM77 °FPassing clouds.No wind79%29.71 "Hg2 mi
2:40 AM77 °FPassing clouds.No wind79%29.71 "Hg2 mi
2:10 AM79 °FPassing clouds.No wind79%29.71 "Hg2 mi
1:40 AM79 °FPassing clouds.No wind74%29.74 "Hg2 mi
1:10 AM79 °FPassing clouds.No wind79%29.77 "Hg2 mi
12:40 AM79 °FPartly cloudy.No wind79%29.77 "Hg2 mi
12:10 AM79 °FPartly cloudy.No wind79%29.77 "Hg2 mi
11:40 PM
Nov 25
79 °FPartly cloudy.No wind79%29.77 "Hg2 mi
11:10 PM79 °FPartly cloudy.No wind74%29.80 "Hg2 mi
10:40 PM79 °FPartly cloudy.No wind74%29.80 "Hg2 mi
10:10 PM79 °FPartly cloudy.No wind74%29.83 "Hg2 mi
9:40 PM79 °FPartly cloudy.No wind74%29.83 "Hg2 mi
8:40 PM79 °FPartly cloudy.No wind74%29.83 "Hg2 mi
8:10 PM79 °FPartly cloudy.No wind70%29.80 "Hg2 mi
7:40 PM81 °FPartly cloudy.No wind66%29.80 "Hg2 mi
6:40 PM81 °FPartly cloudy.No wind66%29.77 "Hg2 mi
5:40 PM82 °FBroken clouds.3 mph62%29.77 "Hg2 mi
5:10 PM82 °FDrizzle. Broken clouds.3 mph66%29.74 "Hg2 mi
4:40 PM84 °FBroken clouds.3 mph62%29.74 "Hg2 mi
Weather by CustomWeather, © 2014

See weather overviewHow to use our weather pages